This is the latest recevied weather packets stored in our database for station/object N5KJT. If no packets are shown the sender has not sent any weather packets the latest 10 day(s).
| Time | Temp. | Humidity | Pressure | Rain* | Wind** | Luminosity | Snow |
|---|---|---|---|---|---|---|---|
| 1788123916 | 31.67° C | 26% | 1022.8 hPa | 0 mm | - | 893 W/m² | - |
| 1788123616 | 31.67° C | 25% | 1022.9 hPa | 0 mm | - | 914 W/m² | - |
| 1788123316 | 31.67° C | 25% | 1023 hPa | 0 mm | - | 735 W/m² | - |
| 1788123016 | 31.67° C | 27% | 1023.1 hPa | 0 mm | - | 952 W/m² | - |
| 1788122716 | 31.67° C | 27% | 1023.2 hPa | 0 mm | - | 808 W/m² | - |
| 1788122416 | 31.67° C | 27% | 1023.3 hPa | 0 mm | - | 1234 W/m² | - |
| 1788122116 | 31.67° C | 27% | 1023.3 hPa | 0 mm | - | 1050 W/m² | - |
| 1788121816 | 31.67° C | 26% | 1023.5 hPa | 0 mm | - | 1056 W/m² | - |
| 1788121516 | 31.11° C | 27% | 1023.7 hPa | 0 mm | - | 1254 W/m² | - |
| 1788121216 | 31.11° C | 27% | 1023.7 hPa | 0 mm | - | 1140 W/m² | - |
| 1788120916 | 31.11° C | 27% | 1023.8 hPa | 0 mm | - | 1049 W/m² | - |
| 1788120616 | 31.11° C | 27% | 1023.8 hPa | 0 mm | - | 1154 W/m² | - |
| 1788120316 | 31.67° C | 26% | 1023.9 hPa | 0 mm | - | 1077 W/m² | - |
| 1788120016 | 31.67° C | 27% | 1023.9 hPa | 0 mm | - | 1042 W/m² | - |
| 1788119716 | 31.67° C | 27% | 1024 hPa | 0 mm | - | 1140 W/m² | - |
| 1788119416 | 31.67° C | 28% | 1024.1 hPa | 0 mm | - | 1209 W/m² | - |
| 1788119116 | 31.11° C | 28% | 1024.1 hPa | 0 mm | - | 1218 W/m² | - |
| 1788118816 | 31.11° C | 28% | 1024.2 hPa | 0 mm | - | 1274 W/m² | - |
| 1788118516 | 31.11° C | 29% | 1024.2 hPa | 0 mm | - | 1305 W/m² | - |
| 1788118216 | 31.11° C | 29% | 1024.3 hPa | 0 mm | - | 1317 W/m² | - |
| 1788117916 | 31.67° C | 27% | 1024.2 hPa | 0 mm | - | 597 W/m² | - |
| 1788117616 | 32.22° C | 27% | 1024.2 hPa | 0 mm | - | 1309 W/m² | - |
| 1788117316 | 32.22° C | 26% | 1024.3 hPa | 0 mm | - | 1328 W/m² | - |
| 1788117016 | 31.67° C | 26% | 1024.3 hPa | 0 mm | - | 1210 W/m² | - |
| 1788116716 | 31.67° C | 28% | 1024.2 hPa | 0 mm | - | 1231 W/m² | - |
* Rain latest hour (hover to see other rain measurements)
** Current wind speed in m/s (hover to see current wind gust speed)